Location: Dumpton Point
(51.3500°N, 1.4433°E)
Time: 05:30:02
(UTC+00:00)

Altair - Pass Details

Date: 08 October 2022
Orbit: 1501 x 1682 km, 47.2° (Epoch: 26 November)

Event Time Altitude Azimuth Distance (km) Brightness Sun altitude
Rises 04:28:32 0° 238° (WSW) 4,748 - -16.0°
Reaches altitude 10° 04:31:37 10° 234° (SW) 3,789 - -15.5°
Exits shadow 04:32:45 14° 233° (SW) 3,450 8.8 -15.3°
Maximum altitude 04:41:01 59° 159° (SSE) 1,848 8.0 -14.1°
Drops below altitude 10° 04:50:46 10° 84° (E) 3,923 11.2 -12.5°
Sets 04:54:01 0° 81° (E) 4,925 12.3 -12.0°
